User: anonymous   Login
Location: Asheville, NC
(35.6000°N, 82.5500°W)
Time: 20:13:19
(UTC-04:00)
Language:

EO-79 - Orbit

View from above orbital plane
View from above orbital plane
View from above satellite
View from above satellite

Ground track
Ground track

The orbit data is extracted from the following two-line orbital elements,

1 40025U 14033R   18114.71248995 +.00000344 +00000-0 +42808-4 0  9999
2 40025 097.9070 030.2164 0012758 007.9013 352.2402 14.88684758208326
Epoch (UTC): 24 April 2018 17:05:59
Eccentricity: 0.0012758
inclination: 97.9070°
perigee height: 593 km
apogee height: 611 km
right ascension of ascending node: 30.2164°
argument of perigee: 7.9013°
revolutions per day: 14.88684758
mean anomaly at epoch: 352.2402°
orbit number at epoch: 20832

The dashed part of the orbit path shows where the satellite is in the earth's shadow,  

DLR